Time,TemperatureF,DewpointF,PressureIn,WindDirection,WindDirectionDegrees,WindSpeedMPH,WindSpeedGustMPH,Humidity,HourlyPrecipIn,Conditions,Clouds,dailyrainin,SoftwareType,DateUTC
2013-02-28 00:02:00,44.4,29.2,30.17,NW,315,3.5,3.5,55,0.00,RA,FEW,0.00,WeatherDisplay:10.37,2013-02-28 06:02:00,
2013-02-28 00:07:00,44.2,30.0,30.17,NW,315,3.5,3.5,57,0.00,RA,FEW,0.00,WeatherDisplay:10.37,2013-02-28 06:07:00,
2013-02-28 00:12:00,44.1,30.6,30.16,West,270,3.5,3.5,59,0.00,CLR,FEW,0.00,WeatherDisplay:10.37,2013-02-28 06:12:00,
2013-02-28 00:17:00,44.1,31.1,30.17,West,270,4.6,4.6,60,0.00,CLR,FEW,0.00,WeatherDisplay:10.37,2013-02-28 06:17:00,
2013-02-28 00:22:00,44.2,30.8,30.17,West,270,3.5,3.5,59,0.00,CLR,FEW,0.00,WeatherDisplay:10.37,2013-02-28 06:22:00,
2013-02-28 00:27:00,44.1,28.0,30.17,North,0,3.8,3.8,53,0.00,CLR,FEW,0.00,WeatherDisplay:10.37,2013-02-28 06:27:00,
2013-02-28 00:32:00,43.9,27.8,30.17,West,270,4.6,4.6,53,0.00,CLR,FEW,0.00,WeatherDisplay:10.37,2013-02-28 06:32:00,
2013-02-28 00:37:00,43.9,29.6,30.17,West,270,4.5,4.5,57,0.00,CLR,FEW,0.00,WeatherDisplay:10.37,2013-02-28 06:37:00,
2013-02-28 00:42:00,43.9,29.6,30.17,West,270,3.5,3.5,57,0.00,CLR,FEW,0.00,WeatherDisplay:10.37,2013-02-28 06:42:00,
2013-02-28 00:47:00,43.7,29.0,30.17,West,270,2.3,2.3,56,0.00,CLR,FEW,0.00,WeatherDisplay:10.37,2013-02-28 06:47:00,
2013-02-28 00:52:00,43.5,29.3,30.17,West,270,1.2,0.0,57,0.00,CLR,FEW,0.00,WeatherDisplay:10.37,2013-02-28 06:52:00,
2013-02-28 00:57:00,43.2,28.9,30.17,NW,315,1.6,1.6,57,0.00,CLR,FEW,0.00,WeatherDisplay:10.37,2013-02-28 06:57:00,
2013-02-28 01:02:00,43.0,30.8,30.17,West,270,3.5,3.5,62,0.00,CLR,FEW,0.00,WeatherDisplay:10.37,2013-02-28 07:02:00,
2013-02-28 01:07:00,43.3,30.8,30.18,West,270,3.5,3.5,61,0.00,CLR,FEW,0.00,WeatherDisplay:10.37,2013-02-28 07:07:00,
2013-02-28 01:12:00,43.7,31.5,30.18,West,270,4.6,4.6,62,0.00,CLR,FEW,0.00,WeatherDisplay:10.37,2013-02-28 07:12:00,
2013-02-28 01:17:00,43.9,30.9,30.18,NW,315,4.6,4.6,60,0.00,CLR,FEW,0.00,WeatherDisplay:10.37,2013-02-28 07:17:00,
2013-02-28 01:22:00,43.9,29.2,30.18,West,270,4.5,4.5,56,0.00,CLR,FEW,0.00,WeatherDisplay:10.37,2013-02-28 07:22:00,
2013-02-28 01:27:00,43.7,29.9,30.18,NW,315,3.5,3.5,58,0.00,CLR,FEW,0.00,WeatherDisplay:10.37,2013-02-28 07:27:00,
2013-02-28 01:32:00,43.5,30.1,30.18,NW,315,3.5,3.5,59,0.00,CLR,FEW,0.00,WeatherDisplay:10.37,2013-02-28 07:32:00,
2013-02-28 01:37:00,43.3,30.4,30.18,West,270,2.3,2.3,60,0.00,CLR,FEW,0.00,WeatherDisplay:10.37,2013-02-28 07:37:00,
2013-02-28 01:42:00,43.2,29.8,30.18,West,270,3.1,3.1,59,0.00,CLR,FEW,0.00,WeatherDisplay:10.37,2013-02-28 07:42:00,
2013-02-28 01:47:00,43.0,29.6,30.18,NW,315,3.5,3.5,59,0.00,CLR,FEW,0.00,WeatherDisplay:10.37,2013-02-28 07:47:00,
2013-02-28 01:52:00,42.6,29.3,30.18,NW,315,1.2,0.0,59,0.00,CLR,FEW,0.00,WeatherDisplay:10.37,2013-02-28 07:52:00,
2013-02-28 01:57:00,42.1,28.4,30.18,NW,315,1.2,0.0,58,0.00,CLR,FEW,0.00,WeatherDisplay:10.37,2013-02-28 07:57:00,
2013-02-28 02:02:00,41.2,27.5,30.18,NW,315,1.6,1.6,58,0.00,CLR,FEW,0.00,WeatherDisplay:10.37,2013-02-28 08:02:00,
2013-02-28 02:07:00,40.5,27.2,30.19,NW,315,1.2,0.0,59,0.00,CLR,FEW,0.00,WeatherDisplay:10.37,2013-02-28 08:07:00,
2013-02-28 02:12:00,39.6,27.2,30.19,NW,315,1.2,0.0,61,0.00,CLR,FEW,0.00,WeatherDisplay:10.37,2013-02-28 08:12:00,
2013-02-28 02:17:00,39.0,27.1,30.18,NW,315,0.0,0.0,62,0.00,CLR,FEW,0.00,WeatherDisplay:10.37,2013-02-28 08:17:00,
2013-02-28 02:22:00,38.7,27.5,30.18,NW,315,2.2,0.0,64,0.00,CLR,FEW,0.00,WeatherDisplay:10.37,2013-02-28 08:22:00,
2013-02-28 02:27:00,39.6,30.6,30.18,NW,315,2.3,0.0,70,0.00,CLR,FEW,0.00,WeatherDisplay:10.37,2013-02-28 08:27:00,
2013-02-28 02:32:00,40.5,31.4,30.18,NW,315,3.5,3.5,70,0.00,CLR,FEW,0.00,WeatherDisplay:10.37,2013-02-28 08:32:00,
2013-02-28 02:37:00,41.0,30.9,30.18,NW,315,3.5,3.5,67,0.00,CLR,FEW,0.00,WeatherDisplay:10.37,2013-02-28 08:37:00,
2013-02-28 02:42:00,41.4,31.2,30.17,NW,315,0.0,0.0,67,0.00,CLR,FEW,0.00,WeatherDisplay:10.37,2013-02-28 08:42:00,
2013-02-28 02:47:00,41.7,31.2,30.18,NW,315,4.6,4.6,66,0.00,CLR,FEW,0.00,WeatherDisplay:10.37,2013-02-28 08:47:00,
2013-02-28 02:52:00,42.1,31.2,30.18,NW,315,3.5,3.5,65,0.00,CLR,FEW,0.00,WeatherDisplay:10.37,2013-02-28 08:52:00,
2013-02-28 02:57:00,42.3,31.3,30.18,NW,315,5.4,5.4,65,0.00,CLR,FEW,0.00,WeatherDisplay:10.37,2013-02-28 08:57:00,
2013-02-28 03:02:00,42.4,32.3,30.17,NW,315,5.8,5.8,67,0.00,CLR,FEW,0.00,WeatherDisplay:10.37,2013-02-28 09:02:00,
2013-02-28 03:07:00,42.6,30.9,30.17,NW,315,4.6,4.6,63,0.00,CLR,FEW,0.00,WeatherDisplay:10.37,2013-02-28 09:07:00,
2013-02-28 03:12:00,42.8,31.5,30.17,NW,315,5.8,5.8,64,0.00,CLR,FEW,0.00,WeatherDisplay:10.37,2013-02-28 09:12:00,
2013-02-28 03:17:00,42.8,31.1,30.17,NW,315,3.8,3.8,63,0.00,CLR,FEW,0.00,WeatherDisplay:10.37,2013-02-28 09:17:00,
2013-02-28 03:22:00,42.8,31.1,30.17,NW,315,6.9,6.9,63,0.00,CLR,FEW,0.00,WeatherDisplay:10.37,2013-02-28 09:22:00,
2013-02-28 03:27:00,42.8,30.7,30.17,NW,315,5.8,5.8,62,0.00,CLR,FEW,0.00,WeatherDisplay:10.37,2013-02-28 09:27:00,
2013-02-28 03:32:00,42.4,30.7,30.17,NNW,338,5.8,5.8,63,0.00,CLR,FEW,0.00,WeatherDisplay:10.37,2013-02-28 09:32:00,
2013-02-28 03:37:00,42.4,31.5,30.17,NW,315,4.6,4.6,65,0.00,CLR,FEW,0.00,WeatherDisplay:10.37,2013-02-28 09:37:00,
2013-02-28 03:42:00,42.4,33.0,30.17,NW,315,4.6,4.6,69,0.00,CLR,FEW,0.00,WeatherDisplay:10.37,2013-02-28 09:42:00,
2013-02-28 03:47:00,42.4,32.6,30.17,NW,315,4.6,4.6,68,0.00,CLR,FEW,0.00,WeatherDisplay:10.37,2013-02-28 09:47:00,
2013-02-28 03:52:00,42.4,31.9,30.17,NW,315,4.6,4.6,66,0.00,CLR,FEW,0.00,WeatherDisplay:10.37,2013-02-28 09:52:00,
2013-02-28 03:57:00,42.4,32.6,30.18,NW,315,5.8,5.8,68,0.00,CLR,FEW,0.00,WeatherDisplay:10.37,2013-02-28 09:57:00,
2013-02-28 04:02:00,42.4,32.6,30.18,WNW,292,5.8,5.8,68,0.00,CLR,FEW,0.00,WeatherDisplay:10.37,2013-02-28 10:02:00,
2013-02-28 04:07:00,42.4,32.6,30.18,NW,315,5.8,5.8,68,0.00,CLR,FEW,0.00,WeatherDisplay:10.37,2013-02-28 10:07:00,
2013-02-28 04:12:00,42.4,33.0,30.18,NW,315,5.8,5.8,69,0.00,CLR,FEW,0.00,WeatherDisplay:10.37,2013-02-28 10:12:00,
2013-02-28 04:17:00,42.3,32.4,30.18,NW,315,4.6,4.6,68,0.00,CLR,FEW,0.00,WeatherDisplay:10.37,2013-02-28 10:17:00,
2013-02-28 04:22:00,42.3,32.1,30.18,West,270,4.6,4.6,67,0.00,CLR,FEW,0.00,WeatherDisplay:10.37,2013-02-28 10:22:00,
2013-02-28 04:27:00,42.3,32.4,30.18,NW,315,5.8,5.8,68,0.00,CLR,FEW,0.00,WeatherDisplay:10.37,2013-02-28 10:27:00,
2013-02-28 04:32:00,42.3,32.1,30.19,West,270,5.8,5.8,67,0.00,CLR,FEW,0.00,WeatherDisplay:10.37,2013-02-28 10:32:00,
2013-02-28 04:37:00,42.3,33.2,30.18,NW,315,4.6,4.6,70,0.00,CLR,FEW,0.00,WeatherDisplay:10.37,2013-02-28 10:37:00,
2013-02-28 04:42:00,42.3,33.2,30.18,NW,315,3.5,3.5,70,0.00,CLR,FEW,0.00,WeatherDisplay:10.37,2013-02-28 10:42:00,
2013-02-28 04:47:00,42.3,32.8,30.19,NW,315,3.5,3.5,69,0.00,CLR,FEW,0.00,WeatherDisplay:10.37,2013-02-28 10:47:00,
2013-02-28 04:52:00,42.3,32.8,30.19,West,270,6.0,6.0,69,0.00,CLR,FEW,0.00,WeatherDisplay:10.37,2013-02-28 10:52:00,
2013-02-28 04:57:00,42.4,33.0,30.19,NW,315,4.6,4.6,69,0.00,CLR,FEW,0.00,WeatherDisplay:10.37,2013-02-28 10:57:00,
2013-02-28 05:02:00,42.4,33.7,30.19,NW,315,5.8,5.8,71,0.00,CLR,FEW,0.00,WeatherDisplay:10.37,2013-02-28 11:02:00,
2013-02-28 05:07:00,42.4,33.0,30.19,West,270,5.8,5.8,69,0.00,CLR,FEW,0.00,WeatherDisplay:10.37,2013-02-28 11:07:00,
2013-02-28 05:12:00,42.3,33.5,30.19,NW,315,4.6,4.6,71,0.00,CLR,FEW,0.00,WeatherDisplay:10.37,2013-02-28 11:12:00,
2013-02-28 05:17:00,42.3,32.1,30.19,NW,315,5.8,5.8,67,0.00,CLR,FEW,0.00,WeatherDisplay:10.37,2013-02-28 11:17:00,
2013-02-28 05:22:00,42.3,32.8,30.19,NW,315,5.8,5.8,69,0.00,CLR,FEW,0.00,WeatherDisplay:10.37,2013-02-28 11:22:00,
2013-02-28 05:27:00,42.3,33.2,30.19,NW,315,5.8,5.8,70,0.00,CLR,FEW,0.00,WeatherDisplay:10.37,2013-02-28 11:27:00,
2013-02-28 05:32:00,42.1,32.6,30.19,West,270,3.5,3.5,69,0.00,CLR,FEW,0.00,WeatherDisplay:10.37,2013-02-28 11:32:00,
2013-02-28 05:37:00,42.1,32.6,30.19,West,270,3.5,3.5,69,0.00,CLR,FEW,0.00,WeatherDisplay:10.37,2013-02-28 11:37:00,
2013-02-28 05:42:00,42.1,32.6,30.19,NW,315,3.5,3.5,69,0.00,CLR,FEW,0.00,WeatherDisplay:10.37,2013-02-28 11:42:00,
2013-02-28 05:47:00,42.1,33.0,30.19,NW,315,3.8,3.8,70,0.00,CLR,FEW,0.00,WeatherDisplay:10.37,2013-02-28 11:47:00,
2013-02-28 05:52:00,42.1,32.6,30.19,NW,315,3.5,3.5,69,0.00,CLR,FEW,0.00,WeatherDisplay:10.37,2013-02-28 11:52:00,
2013-02-28 05:57:00,42.1,32.6,30.20,NW,315,3.5,3.5,69,0.00,CLR,FEW,0.00,WeatherDisplay:10.37,2013-02-28 11:57:00,
2013-02-28 06:02:00,41.9,32.5,30.20,NW,315,3.5,3.5,69,0.00,CLR,FEW,0.00,WeatherDisplay:10.37,2013-02-28 12:02:00,
2013-02-28 06:07:00,41.9,33.5,30.20,West,270,3.8,3.8,72,0.00,CLR,FEW,0.00,WeatherDisplay:10.37,2013-02-28 12:07:00,
2013-02-28 06:12:00,42.1,33.7,30.20,West,270,3.5,3.5,72,0.00,CLR,FEW,0.00,WeatherDisplay:10.37,2013-02-28 12:12:00,
2013-02-28 06:17:00,42.1,33.4,30.20,NW,315,3.8,3.8,71,0.00,CLR,FEW,0.00,WeatherDisplay:10.37,2013-02-28 12:17:00,
2013-02-28 06:22:00,42.1,33.0,30.20,NW,315,4.6,4.6,70,0.00,CLR,FEW,0.00,WeatherDisplay:10.37,2013-02-28 12:22:00,
2013-02-28 06:27:00,42.1,33.0,30.21,NW,315,3.8,3.8,70,0.00,CLR,FEW,0.00,WeatherDisplay:10.37,2013-02-28 12:27:00,
2013-02-28 06:32:00,42.1,32.6,30.21,NW,315,4.6,4.6,69,0.00,CLR,FEW,0.00,WeatherDisplay:10.37,2013-02-28 12:32:00,
2013-02-28 06:37:00,42.1,33.0,30.21,West,270,4.6,4.6,70,0.00,CLR,FEW,0.00,WeatherDisplay:10.37,2013-02-28 12:37:00,
2013-02-28 06:42:00,41.9,32.8,30.21,NW,315,3.5,3.5,70,0.00,CLR,FEW,0.00,WeatherDisplay:10.37,2013-02-28 12:42:00,
2013-02-28 06:47:00,41.9,32.8,30.21,NW,315,4.5,4.5,70,0.00,CLR,FEW,0.00,WeatherDisplay:10.37,2013-02-28 12:47:00,
2013-02-28 06:52:00,41.9,32.8,30.21,NW,315,3.5,3.5,70,0.00,CLR,FEW,0.00,WeatherDisplay:10.37,2013-02-28 12:52:00,
2013-02-28 06:57:00,41.9,33.5,30.22,West,270,4.6,4.6,72,0.00,CLR,FEW,0.00,WeatherDisplay:10.37,2013-02-28 12:57:00,
2013-02-28 07:02:00,41.9,32.8,30.22,West,270,4.6,4.6,70,0.00,CLR,FEW,0.00,WeatherDisplay:10.37,2013-02-28 13:02:00,
2013-02-28 07:07:00,41.7,31.9,30.22,West,270,3.8,3.8,68,0.00,CLR,FEW,0.00,WeatherDisplay:10.37,2013-02-28 13:07:00,
2013-02-28 07:12:00,41.9,32.8,30.22,West,270,4.5,4.5,70,0.00,CLR,FEW,0.00,WeatherDisplay:10.37,2013-02-28 13:12:00,
2013-02-28 07:17:00,41.7,32.7,30.23,West,270,4.6,4.6,70,0.00,CLR,FEW,0.00,WeatherDisplay:10.37,2013-02-28 13:17:00,
2013-02-28 07:22:00,41.7,32.3,30.23,West,270,5.8,5.8,69,0.00,CLR,FEW,0.00,WeatherDisplay:10.37,2013-02-28 13:22:00,
2013-02-28 07:27:00,41.7,33.0,30.23,West,270,3.5,3.5,71,0.00,CLR,FEW,0.00,WeatherDisplay:10.37,2013-02-28 13:27:00,
2013-02-28 07:32:00,41.7,32.3,30.23,NW,315,5.8,5.8,69,0.00,CLR,FEW,0.00,WeatherDisplay:10.37,2013-02-28 13:32:00,
2013-02-28 07:37:00,41.7,32.7,30.24,NW,315,5.8,5.8,70,0.00,CLR,FEW,0.00,WeatherDisplay:10.37,2013-02-28 13:37:00,
2013-02-28 07:42:00,41.7,32.7,30.24,NW,315,5.8,5.8,70,0.00,CLR,FEW,0.00,WeatherDisplay:10.37,2013-02-28 13:42:00,
2013-02-28 07:47:00,41.7,32.3,30.23,NW,315,4.6,4.6,69,0.00,CLR,FEW,0.00,WeatherDisplay:10.37,2013-02-28 13:47:00,
2013-02-28 07:52:00,41.7,33.0,30.24,North,0,5.8,5.8,71,0.00,CLR,FEW,0.00,WeatherDisplay:10.37,2013-02-28 13:52:00,
2013-02-28 07:57:00,41.9,33.9,30.24,West,270,4.5,4.5,73,0.00,CLR,FEW,0.00,WeatherDisplay:10.37,2013-02-28 13:57:00,
2013-02-28 08:02:00,42.1,33.7,30.24,NW,315,3.8,3.8,72,0.00,CLR,FEW,0.00,WeatherDisplay:10.37,2013-02-28 14:02:00,
2013-02-28 08:07:00,41.9,32.8,30.24,WNW,292,3.5,3.5,70,0.00,CLR,FEW,0.00,WeatherDisplay:10.37,2013-02-28 14:07:00,
2013-02-28 08:12:00,42.1,34.0,30.25,West,270,4.6,4.6,73,0.00,CLR,FEW,0.00,WeatherDisplay:10.37,2013-02-28 14:12:00,
2013-02-28 08:17:00,42.1,33.7,30.24,WNW,292,4.6,4.6,72,0.00,CLR,FEW,0.00,WeatherDisplay:10.37,2013-02-28 14:17:00,
2013-02-28 08:22:00,42.1,33.0,30.25,WNW,292,5.8,5.8,70,0.00,CLR,FEW,0.00,WeatherDisplay:10.37,2013-02-28 14:22:00,
2013-02-28 08:27:00,42.1,33.0,30.25,NW,315,5.8,5.8,70,0.00,CLR,FEW,0.00,WeatherDisplay:10.37,2013-02-28 14:27:00,
2013-02-28 08:32:00,42.3,32.8,30.25,WNW,292,6.9,6.9,69,0.00,CLR,FEW,0.00,WeatherDisplay:10.37,2013-02-28 14:32:00,
2013-02-28 08:37:00,42.3,32.8,30.25,West,270,5.8,5.8,69,0.00,CLR,FEW,0.00,WeatherDisplay:10.37,2013-02-28 14:37:00,
2013-02-28 08:42:00,42.4,33.3,30.25,NW,315,6.9,6.9,70,0.00,CLR,FEW,0.00,WeatherDisplay:10.37,2013-02-28 14:42:00,
2013-02-28 08:47:00,42.4,33.3,30.26,NW,315,8.1,8.1,70,0.00,CLR,FEW,0.00,WeatherDisplay:10.37,2013-02-28 14:47:00,
2013-02-28 08:52:00,42.6,33.2,30.26,NW,315,5.8,5.8,69,0.00,CLR,FEW,0.00,WeatherDisplay:10.37,2013-02-28 14:52:00,
2013-02-28 08:57:00,42.6,32.8,30.26,West,270,5.8,5.8,68,0.00,CLR,FEW,0.00,WeatherDisplay:10.37,2013-02-28 14:57:00,
2013-02-28 09:02:00,42.8,32.2,30.26,NW,315,5.8,5.8,66,0.00,CLR,FEW,0.00,WeatherDisplay:10.37,2013-02-28 15:02:00,
2013-02-28 09:07:00,42.8,33.0,30.26,NW,315,5.8,5.8,68,0.00,CLR,FEW,0.00,WeatherDisplay:10.37,2013-02-28 15:07:00,
2013-02-28 09:12:00,43.0,32.0,30.26,NW,315,5.8,5.8,65,0.00,CLR,FEW,0.00,WeatherDisplay:10.37,2013-02-28 15:12:00,
2013-02-28 09:17:00,43.2,32.6,30.26,NW,315,5.8,0.0,66,0.00,CLR,FEW,0.00,WeatherDisplay:10.37,2013-02-28 15:17:00,
2013-02-28 09:22:00,43.3,31.6,30.27,West,270,3.5,3.5,63,0.00,CLR,FEW,0.00,WeatherDisplay:10.37,2013-02-28 15:22:00,
2013-02-28 09:27:00,43.7,33.5,30.27,NW,315,4.6,4.6,67,0.00,CLR,FEW,0.00,WeatherDisplay:10.37,2013-02-28 15:27:00,
2013-02-28 09:32:00,44.1,33.0,30.26,NW,315,3.5,3.5,65,0.00,CLR,FEW,0.00,WeatherDisplay:10.37,2013-02-28 15:32:00,
2013-02-28 09:37:00,44.6,33.2,30.26,West,270,3.8,3.8,64,0.00,CLR,FEW,0.00,WeatherDisplay:10.37,2013-02-28 15:37:00,
2013-02-28 09:42:00,44.8,32.5,30.26,West,270,3.8,3.8,62,0.00,CLR,FEW,0.00,WeatherDisplay:10.37,2013-02-28 15:42:00,
2013-02-28 09:47:00,45.0,33.5,30.26,West,270,3.8,3.8,64,0.00,CLR,FEW,0.00,WeatherDisplay:10.37,2013-02-28 15:47:00,
2013-02-28 09:52:00,45.3,33.5,30.26,West,270,5.8,5.8,63,0.00,CLR,FEW,0.00,WeatherDisplay:10.37,2013-02-28 15:52:00,
2013-02-28 09:57:00,45.9,33.6,30.26,WSW,248,5.8,5.8,62,0.00,CLR,FEW,0.00,WeatherDisplay:10.37,2013-02-28 15:57:00,
2013-02-28 10:02:00,46.2,33.5,30.26,SW,225,4.6,4.6,61,0.00,CLR,FEW,0.00,WeatherDisplay:10.37,2013-02-28 16:02:00,
2013-02-28 10:07:00,47.1,32.7,30.26,North,0,5.8,5.8,57,0.00,CLR,FEW,0.00,WeatherDisplay:10.37,2013-02-28 16:07:00,
2013-02-28 10:12:00,48.2,33.2,30.26,NW,315,4.6,4.6,56,0.00,CLR,FEW,0.00,WeatherDisplay:10.37,2013-02-28 16:12:00,
2013-02-28 10:17:00,49.1,33.2,30.26,NW,315,9.2,9.2,54,0.00,CLR,FEW,0.00,WeatherDisplay:10.37,2013-02-28 16:17:00,
2013-02-28 10:22:00,49.1,32.7,30.26,NW,315,10.4,10.4,53,0.00,CLR,FEW,0.00,WeatherDisplay:10.37,2013-02-28 16:22:00,
2013-02-28 10:27:00,49.6,33.2,30.25,North,0,9.2,9.2,53,0.00,CLR,FEW,0.00,WeatherDisplay:10.37,2013-02-28 16:27:00,
2013-02-28 10:32:00,49.8,31.9,30.25,NW,315,10.4,10.4,50,0.00,CLR,FEW,0.00,WeatherDisplay:10.37,2013-02-28 16:32:00,
2013-02-28 10:37:00,49.8,31.9,30.25,NW,315,11.5,11.5,50,0.00,CLR,FEW,0.00,WeatherDisplay:10.37,2013-02-28 16:37:00,
2013-02-28 10:42:00,50.4,33.9,30.25,North,0,8.1,8.1,53,0.00,CLR,FEW,0.00,WeatherDisplay:10.37,2013-02-28 16:42:00,
2013-02-28 10:47:00,51.6,32.0,30.25,North,0,5.8,5.8,47,0.00,CLR,FEW,0.00,WeatherDisplay:10.37,2013-02-28 16:47:00,
2013-02-28 10:53:00,52.2,30.9,30.25,NW,315,12.1,12.1,44,0.00,CLR,FEW,0.00,WeatherDisplay:10.37,2013-02-28 16:53:00,
2013-02-28 10:58:00,52.5,28.2,30.24,NW,315,10.4,10.4,39,0.00,CLR,FEW,0.00,WeatherDisplay:10.37,2013-02-28 16:58:00,
2013-02-28 11:03:00,52.3,29.3,30.24,NW,315,16.1,16.1,41,0.00,CLR,FEW,0.00,WeatherDisplay:10.37,2013-02-28 17:03:00,
2013-02-28 11:08:00,52.5,31.2,30.24,NNW,338,11.4,11.4,44,0.00,CLR,FEW,0.00,WeatherDisplay:10.37,2013-02-28 17:08:00,
2013-02-28 11:13:00,52.7,31.4,30.24,NW,315,10.4,10.4,44,0.00,CLR,FEW,0.00,WeatherDisplay:10.37,2013-02-28 17:13:00,
2013-02-28 11:18:00,52.9,29.2,30.24,North,0,10.4,10.4,40,0.00,CLR,FEW,0.00,WeatherDisplay:10.37,2013-02-28 17:18:00,
2013-02-28 11:24:00,53.4,31.5,30.23,NW,315,8.1,8.1,43,0.00,CLR,FEW,0.00,WeatherDisplay:10.37,2013-02-28 17:24:00,
2013-02-28 11:29:00,53.6,29.8,30.23,ENE,68,10.4,10.4,40,0.00,CLR,FEW,0.00,WeatherDisplay:10.37,2013-02-28 17:29:00,
2013-02-28 11:34:00,54.0,30.8,30.23,NW,315,7.6,7.6,41,0.00,CLR,FEW,0.00,WeatherDisplay:10.37,2013-02-28 17:34:00,
2013-02-28 11:39:00,54.1,29.7,30.23,NNW,338,6.9,6.9,39,0.00,CLR,FEW,0.00,WeatherDisplay:10.37,2013-02-28 17:39:00,
2013-02-28 11:44:00,54.7,29.5,30.23,NW,315,8.1,8.1,38,0.00,CLR,FEW,0.00,WeatherDisplay:10.37,2013-02-28 17:44:00,
2013-02-28 11:49:00,54.0,28.3,30.22,NW,315,11.5,11.5,37,0.00,CLR,FEW,0.00,WeatherDisplay:10.37,2013-02-28 17:49:00,
2013-02-28 11:54:00,54.0,29.5,30.22,NW,315,9.8,9.8,39,0.00,CLR,FEW,0.00,WeatherDisplay:10.37,2013-02-28 17:54:00,
2013-02-28 11:59:00,54.0,28.3,30.22,NW,315,13.8,13.8,37,0.00,CLR,FEW,0.00,WeatherDisplay:10.37,2013-02-28 17:59:00,
2013-02-28 12:05:00,54.1,27.1,30.22,NW,315,12.7,12.7,35,0.00,CLR,FEW,0.00,WeatherDisplay:10.37,2013-02-28 18:05:00,
2013-02-28 12:10:00,54.3,27.9,30.22,NW,315,12.7,12.7,36,0.00,CLR,FEW,0.00,WeatherDisplay:10.37,2013-02-28 18:10:00,
2013-02-28 12:15:00,54.3,27.9,30.22,North,0,8.1,8.1,36,0.00,CLR,FEW,0.00,WeatherDisplay:10.37,2013-02-28 18:15:00,
2013-02-28 12:20:00,54.5,28.1,30.21,North,0,6.9,6.9,36,0.00,CLR,FEW,0.00,WeatherDisplay:10.37,2013-02-28 18:20:00,
2013-02-28 12:25:00,54.9,27.7,30.21,NE,45,9.8,9.8,35,0.00,CLR,FEW,0.00,WeatherDisplay:10.37,2013-02-28 18:25:00,
2013-02-28 12:30:00,55.6,28.3,30.21,North,0,5.8,5.8,35,0.00,CLR,FEW,0.00,WeatherDisplay:10.37,2013-02-28 18:30:00,
2013-02-28 12:35:00,55.9,30.0,30.20,NW,315,10.4,10.4,37,0.00,CLR,FEW,0.00,WeatherDisplay:10.37,2013-02-28 18:35:00,
2013-02-28 12:40:00,55.8,27.8,30.20,NW,315,9.2,9.2,34,0.00,CLR,FEW,0.00,WeatherDisplay:10.37,2013-02-28 18:40:00,
2013-02-28 12:45:00,55.8,27.8,30.19,NW,315,7.6,7.6,34,0.00,CLR,FEW,0.00,WeatherDisplay:10.37,2013-02-28 18:45:00,
2013-02-28 12:50:00,55.9,25.7,30.19,North,0,8.1,8.1,31,0.00,CLR,FEW,0.00,WeatherDisplay:10.37,2013-02-28 18:50:00,
2013-02-28 12:55:00,55.9,27.2,30.18,NW,315,4.6,4.6,33,0.00,CLR,FEW,0.00,WeatherDisplay:10.37,2013-02-28 18:55:00,
2013-02-28 13:00:00,56.5,26.2,30.18,North,0,8.1,8.1,31,0.00,CLR,FEW,0.00,WeatherDisplay:10.37,2013-02-28 19:00:00,
2013-02-28 13:05:00,57.0,28.2,30.18,NW,315,9.8,9.8,33,0.00,CLR,FEW,0.00,WeatherDisplay:10.37,2013-02-28 19:05:00,
2013-02-28 13:10:00,57.0,25.9,30.18,NW,315,8.1,8.1,30,0.00,CLR,FEW,0.00,WeatherDisplay:10.37,2013-02-28 19:10:00,
2013-02-28 13:15:00,57.4,27.0,30.17,NW,315,10.7,10.7,31,0.00,CLR,FEW,0.00,WeatherDisplay:10.37,2013-02-28 19:15:00,
2013-02-28 13:20:00,56.8,26.5,30.17,NW,315,8.1,8.1,31,0.00,CLR,FEW,0.00,WeatherDisplay:10.37,2013-02-28 19:20:00,
2013-02-28 13:25:00,57.0,25.0,30.17,North,0,6.9,6.9,29,0.00,CLR,FEW,0.00,WeatherDisplay:10.37,2013-02-28 19:25:00,
2013-02-28 13:30:00,56.8,23.2,30.17,North,0,4.6,4.6,27,0.00,CLR,FEW,0.00,WeatherDisplay:10.37,2013-02-28 19:30:00,
2013-02-28 13:35:00,56.8,23.2,30.17,West,270,11.4,11.4,27,0.00,CLR,FEW,0.00,WeatherDisplay:10.37,2013-02-28 19:35:00,
2013-02-28 13:40:00,56.8,25.7,30.16,West,270,12.7,12.7,30,0.00,CLR,FEW,0.00,WeatherDisplay:10.37,2013-02-28 19:40:00,
2013-02-28 13:45:00,56.8,27.3,30.16,East,90,12.7,12.7,32,0.00,CLR,FEW,0.00,WeatherDisplay:10.37,2013-02-28 19:45:00,
2013-02-28 13:50:00,57.0,25.9,30.16,NW,315,6.9,6.9,30,0.00,CLR,FEW,0.00,WeatherDisplay:10.37,2013-02-28 19:50:00,
2013-02-28 13:55:00,57.6,27.1,30.15,NW,315,9.2,9.2,31,0.00,CLR,FEW,0.00,WeatherDisplay:10.37,2013-02-28 19:55:00,
2013-02-28 14:00:00,57.2,26.8,30.15,West,270,12.7,12.7,31,0.00,CLR,FEW,0.00,WeatherDisplay:10.37,2013-02-28 20:00:00,
2013-02-28 14:05:00,57.4,26.2,30.15,NW,315,11.5,11.5,30,0.00,CLR,FEW,0.00,WeatherDisplay:10.37,2013-02-28 20:05:00,
2013-02-28 14:10:00,57.7,25.7,30.15,NW,315,8.1,8.1,29,0.00,CLR,FEW,0.00,WeatherDisplay:10.37,2013-02-28 20:10:00,
2013-02-28 14:15:00,58.1,26.8,30.15,NW,315,8.3,8.3,30,0.00,CLR,FEW,0.00,WeatherDisplay:10.37,2013-02-28 20:15:00,
2013-02-28 14:20:00,58.1,27.6,30.14,North,0,5.8,5.8,31,0.00,CLR,FEW,0.00,WeatherDisplay:10.37,2013-02-28 20:20:00,
2013-02-28 14:25:00,58.1,23.3,30.14,NW,315,9.2,9.2,26,0.00,CLR,FEW,0.00,WeatherDisplay:10.37,2013-02-28 20:25:00,
2013-02-28 14:30:00,58.5,25.4,30.14,NW,315,8.1,8.1,28,0.00,CLR,FEW,0.00,WeatherDisplay:10.37,2013-02-28 20:30:00,
2013-02-28 14:35:00,59.0,24.1,30.14,NE,45,5.8,5.8,26,0.00,CLR,FEW,0.00,WeatherDisplay:10.37,2013-02-28 20:35:00,
2013-02-28 14:40:00,59.2,23.3,30.13,NW,315,10.4,10.4,25,0.00,CLR,FEW,0.00,WeatherDisplay:10.37,2013-02-28 20:40:00,
2013-02-28 14:45:00,58.8,27.4,30.13,North,0,7.6,7.6,30,0.00,CLR,FEW,0.00,WeatherDisplay:10.37,2013-02-28 20:45:00,
2013-02-28 14:50:00,59.0,23.2,30.13,NE,45,8.1,8.1,25,0.00,CLR,FEW,0.00,WeatherDisplay:10.37,2013-02-28 20:50:00,
2013-02-28 14:55:00,59.4,24.4,30.13,NW,315,9.8,9.8,26,0.00,CLR,FEW,0.00,WeatherDisplay:10.37,2013-02-28 20:55:00,
2013-02-28 15:00:00,59.2,26.1,30.13,NW,315,11.5,11.5,28,0.00,CLR,FEW,0.00,WeatherDisplay:10.37,2013-02-28 21:00:00,
2013-02-28 15:05:00,59.4,25.3,30.13,North,0,8.1,8.1,27,0.00,CLR,FEW,0.00,WeatherDisplay:10.37,2013-02-28 21:05:00,
2013-02-28 15:10:00,59.4,28.7,30.13,NW,315,11.5,11.5,31,0.00,CLR,FEW,0.00,WeatherDisplay:10.37,2013-02-28 21:10:00,
2013-02-28 15:15:00,59.4,26.2,30.12,NW,315,9.8,9.8,28,0.00,CLR,FEW,0.00,WeatherDisplay:10.37,2013-02-28 21:15:00,
2013-02-28 15:20:00,59.4,27.1,30.12,NW,315,5.8,5.8,29,0.00,CLR,FEW,0.00,WeatherDisplay:10.37,2013-02-28 21:20:00,
2013-02-28 15:25:00,59.7,22.8,30.12,NW,315,6.9,6.9,24,0.00,CLR,FEW,0.00,WeatherDisplay:10.37,2013-02-28 21:25:00,
2013-02-28 15:30:00,60.1,25.0,30.12,NE,45,6.9,6.9,26,0.00,CLR,FEW,0.00,WeatherDisplay:10.37,2013-02-28 21:30:00,
2013-02-28 15:35:00,60.1,23.1,30.12,NW,315,9.2,9.2,24,0.00,CLR,FEW,0.00,WeatherDisplay:10.37,2013-02-28 21:35:00,
2013-02-28 15:40:00,60.1,25.0,30.12,North,0,9.2,9.2,26,0.00,CLR,FEW,0.00,WeatherDisplay:10.37,2013-02-28 21:40:00,
2013-02-28 15:45:00,59.9,24.9,30.12,NW,315,6.0,6.0,26,0.00,CLR,FEW,0.00,WeatherDisplay:10.37,2013-02-28 21:45:00,
2013-02-28 15:50:00,59.9,24.9,30.12,NW,315,11.5,11.5,26,0.00,CLR,FEW,0.00,WeatherDisplay:10.37,2013-02-28 21:50:00,
2013-02-28 15:55:00,60.3,27.0,30.12,NW,315,6.9,6.9,28,0.00,CLR,FEW,0.00,WeatherDisplay:10.37,2013-02-28 21:55:00,
2013-02-28 16:00:00,60.4,24.4,30.11,NW,315,10.4,10.4,25,0.00,CLR,FEW,0.00,WeatherDisplay:10.37,2013-02-28 22:00:00,
2013-02-28 16:05:00,60.4,26.3,30.12,NW,315,10.4,10.4,27,0.00,CLR,FEW,0.00,WeatherDisplay:10.37,2013-02-28 22:05:00,
2013-02-28 16:10:00,60.6,23.6,30.11,NW,315,4.6,4.6,24,0.00,CLR,FEW,0.00,WeatherDisplay:10.37,2013-02-28 22:10:00,
2013-02-28 16:15:00,60.6,25.5,30.11,WNW,292,13.8,13.8,26,0.00,CLR,FEW,0.00,WeatherDisplay:10.37,2013-02-28 22:15:00,
2013-02-28 16:20:00,61.0,24.9,30.11,NW,315,10.4,10.4,25,0.00,CLR,FEW,0.00,WeatherDisplay:10.37,2013-02-28 22:20:00,
2013-02-28 16:25:00,60.8,25.7,30.11,North,0,4.5,4.5,26,0.00,CLR,FEW,0.00,WeatherDisplay:10.37,2013-02-28 22:25:00,
2013-02-28 16:30:00,61.0,22.9,30.11,NW,315,5.8,5.8,23,0.00,CLR,FEW,0.00,WeatherDisplay:10.37,2013-02-28 22:30:00,
2013-02-28 16:35:00,61.2,23.0,30.11,North,0,8.1,8.1,23,0.00,CLR,FEW,0.00,WeatherDisplay:10.37,2013-02-28 22:35:00,
2013-02-28 16:40:00,61.2,19.7,30.11,NE,45,5.8,5.8,20,0.00,CLR,FEW,0.00,WeatherDisplay:10.37,2013-02-28 22:40:00,
2013-02-28 16:45:00,61.0,24.9,30.11,NW,315,3.5,3.5,25,0.00,CLR,FEW,0.00,WeatherDisplay:10.37,2013-02-28 22:45:00,
2013-02-28 16:50:00,61.0,22.9,30.11,North,0,5.8,5.8,23,0.00,CLR,FEW,0.00,WeatherDisplay:10.37,2013-02-28 22:50:00,
2013-02-28 16:55:00,61.3,26.1,30.11,NW,315,10.4,10.4,26,0.00,CLR,FEW,0.00,WeatherDisplay:10.37,2013-02-28 22:55:00,
2013-02-28 17:00:00,61.3,27.0,30.11,NW,315,8.1,8.1,27,0.00,CLR,FEW,0.00,WeatherDisplay:10.37,2013-02-28 23:00:00,
2013-02-28 17:05:00,61.3,25.2,30.11,NW,315,8.3,8.3,25,0.00,CLR,FEW,0.00,WeatherDisplay:10.37,2013-02-28 23:05:00,
2013-02-28 17:10:00,61.3,26.1,30.11,NW,315,8.1,8.1,26,0.00,CLR,FEW,0.00,WeatherDisplay:10.37,2013-02-28 23:10:00,
2013-02-28 17:15:00,61.3,24.2,30.11,NW,315,9.2,9.2,24,0.00,CLR,FEW,0.00,WeatherDisplay:10.37,2013-02-28 23:15:00,
2013-02-28 17:20:00,61.3,23.2,30.11,North,0,12.7,12.7,23,0.00,CLR,FEW,0.00,WeatherDisplay:10.37,2013-02-28 23:20:00,
2013-02-28 17:25:00,61.5,20.0,30.11,North,0,8.1,8.1,20,0.00,CLR,FEW,0.00,WeatherDisplay:10.37,2013-02-28 23:25:00,
2013-02-28 17:30:00,61.9,20.3,30.11,NE,45,5.8,5.8,20,0.00,CLR,FEW,0.00,WeatherDisplay:10.37,2013-02-28 23:30:00,
2013-02-28 17:35:00,61.9,20.3,30.11,NW,315,6.9,6.9,20,0.00,CLR,FEW,0.00,WeatherDisplay:10.37,2013-02-28 23:35:00,
2013-02-28 17:40:00,61.7,22.4,30.11,North,0,6.9,6.9,22,0.00,CLR,FEW,0.00,WeatherDisplay:10.37,2013-02-28 23:40:00,
2013-02-28 17:45:00,61.7,23.5,30.11,NW,315,5.8,5.8,23,0.00,CLR,FEW,0.00,WeatherDisplay:10.37,2013-02-28 23:45:00,
2013-02-28 18:26:00,60.3,21.2,30.13,North,352,2.0,0.0,22,0.00,CLR,FEW,0.00,WeatherDisplay:10.37,2013-03-01 00:26:00,
2013-02-28 18:31:00,59.9,20.9,30.12,North,0,1.2,0.0,22,0.00,CLR,FEW,0.00,WeatherDisplay:10.37,2013-03-01 00:31:00,
2013-02-28 18:36:00,59.5,20.6,30.13,North,0,1.6,0.0,22,0.00,CLR,FEW,0.00,WeatherDisplay:10.37,2013-03-01 00:36:00,
2013-02-28 18:41:00,59.2,22.4,30.13,North,0,1.2,0.0,24,0.00,CLR,FEW,0.00,WeatherDisplay:10.37,2013-03-01 00:41:00,
2013-02-28 18:46:00,58.6,20.9,30.13,North,0,1.2,0.0,23,0.00,CLR,FEW,0.00,WeatherDisplay:10.37,2013-03-01 00:46:00,
2013-02-28 18:51:00,58.3,20.6,30.13,North,0,1.2,0.0,23,0.00,CLR,FEW,0.00,WeatherDisplay:10.37,2013-03-01 00:51:00,
2013-02-28 18:56:00,57.6,20.0,30.14,North,0,0.0,0.0,23,0.00,CLR,FEW,0.00,WeatherDisplay:10.37,2013-03-01 00:56:00,
2013-02-28 19:01:00,56.8,21.3,30.14,North,0,0.0,0.0,25,0.00,CLR,FEW,0.00,WeatherDisplay:10.37,2013-03-01 01:01:00,
2013-02-28 19:06:00,56.1,21.7,30.14,North,0,1.2,0.0,26,0.00,CLR,FEW,0.00,WeatherDisplay:10.37,2013-03-01 01:06:00,
2013-02-28 19:11:00,55.2,21.8,30.14,North,0,0.0,0.0,27,0.00,CLR,FEW,0.00,WeatherDisplay:10.37,2013-03-01 01:11:00,
2013-02-28 19:16:00,54.3,21.9,30.14,North,0,1.2,0.0,28,0.00,CLR,FEW,0.00,WeatherDisplay:10.37,2013-03-01 01:16:00,
2013-02-28 19:21:00,53.4,21.9,30.14,North,0,1.6,0.0,29,0.00,CLR,FEW,0.00,WeatherDisplay:10.37,2013-03-01 01:21:00,
2013-02-28 19:26:00,52.9,22.2,30.14,North,0,1.2,0.0,30,0.00,CLR,FEW,0.00,WeatherDisplay:10.37,2013-03-01 01:26:00,
2013-02-28 19:31:00,52.3,22.6,30.14,North,0,0.0,0.0,31,0.00,CLR,FEW,0.00,WeatherDisplay:10.37,2013-03-01 01:31:00,
2013-02-28 19:36:00,51.8,22.1,30.14,North,0,0.0,0.0,31,0.00,CLR,FEW,0.00,WeatherDisplay:10.37,2013-03-01 01:36:00,
2013-02-28 19:41:00,51.3,23.1,30.15,North,0,1.6,0.0,33,0.00,CLR,FEW,0.00,WeatherDisplay:10.37,2013-03-01 01:41:00,
2013-02-28 19:46:00,50.9,23.5,30.15,North,0,1.2,0.0,34,0.00,CLR,FEW,0.00,WeatherDisplay:10.37,2013-03-01 01:46:00,
2013-02-28 19:51:00,50.4,25.0,30.15,North,0,1.2,0.0,37,0.00,CLR,FEW,0.00,WeatherDisplay:10.37,2013-03-01 01:51:00,
2013-02-28 19:56:00,50.0,26.0,30.15,North,0,0.0,0.0,39,0.00,CLR,FEW,0.00,WeatherDisplay:10.37,2013-03-01 01:56:00,
2013-02-28 20:01:00,49.5,25.5,30.15,North,0,0.0,0.0,39,0.00,CLR,FEW,0.00,WeatherDisplay:10.37,2013-03-01 02:01:00,
2013-02-28 20:06:00,49.1,26.4,30.15,North,0,0.0,0.0,41,0.00,CLR,FEW,0.00,WeatherDisplay:10.37,2013-03-01 02:06:00,
2013-02-28 20:11:00,48.7,27.2,30.15,North,0,0.0,0.0,43,0.00,CLR,FEW,0.00,WeatherDisplay:10.37,2013-03-01 02:11:00,
2013-02-28 20:16:00,48.4,28.5,30.15,North,0,0.0,0.0,46,0.00,CLR,FEW,0.00,WeatherDisplay:10.37,2013-03-01 02:16:00,
2013-02-28 20:21:00,48.2,28.9,30.15,North,0,0.0,0.0,47,0.00,CLR,FEW,0.00,WeatherDisplay:10.37,2013-03-01 02:21:00,
2013-02-28 20:26:00,47.8,29.6,30.15,North,0,0.0,0.0,49,0.00,CLR,FEW,0.00,WeatherDisplay:10.37,2013-03-01 02:26:00,
2013-02-28 20:31:00,47.7,30.4,30.15,North,0,0.0,0.0,51,0.00,CLR,FEW,0.00,WeatherDisplay:10.37,2013-03-01 02:31:00,
2013-02-28 20:36:00,47.5,31.2,30.15,North,0,0.0,0.0,53,0.00,CLR,FEW,0.00,WeatherDisplay:10.37,2013-03-01 02:36:00,
2013-02-28 20:41:00,47.1,31.3,30.15,North,0,0.0,0.0,54,0.00,CLR,FEW,0.00,WeatherDisplay:10.37,2013-03-01 02:41:00,
2013-02-28 20:46:00,46.8,31.9,30.15,North,0,0.0,0.0,56,0.00,CLR,FEW,0.00,WeatherDisplay:10.37,2013-03-01 02:46:00,
2013-02-28 20:51:00,46.6,32.1,30.15,North,0,0.0,0.0,57,0.00,CLR,FEW,0.00,WeatherDisplay:10.37,2013-03-01 02:51:00,
2013-02-28 20:56:00,46.2,32.2,30.15,North,0,0.0,0.0,58,0.00,CLR,FEW,0.00,WeatherDisplay:10.37,2013-03-01 02:56:00,
2013-02-28 21:01:00,46.0,32.1,30.16,North,0,0.0,0.0,58,0.00,CLR,FEW,0.00,WeatherDisplay:10.37,2013-03-01 03:01:00,
2013-02-28 21:36:00,44.2,32.8,30.17,North,0,0.0,0.0,64,0.00,CLR,FEW,0.00,WeatherDisplay:10.37,2013-03-01 03:36:00,
2013-02-28 21:41:00,44.1,32.7,30.17,North,0,0.0,0.0,64,0.00,CLR,FEW,0.00,WeatherDisplay:10.37,2013-03-01 03:41:00,
2013-02-28 21:46:00,43.9,32.8,30.17,North,0,0.0,0.0,65,0.00,CLR,FEW,0.00,WeatherDisplay:10.37,2013-03-01 03:46:00,
2013-02-28 21:51:00,43.6,32.6,30.17,North,0,0.0,0.0,65,0.00,CLR,FEW,0.00,WeatherDisplay:10.37,2013-03-01 03:51:00,
2013-02-28 21:56:00,43.3,32.4,30.17,North,0,0.0,0.0,65,0.00,CLR,FEW,0.00,WeatherDisplay:10.37,2013-03-01 03:56:00,
2013-02-28 22:01:00,43.3,32.4,30.17,North,0,0.0,0.0,65,0.00,CLR,FEW,0.00,WeatherDisplay:10.37,2013-03-01 04:01:00,
2013-02-28 22:06:00,43.3,32.7,30.17,North,0,0.0,0.0,66,0.00,CLR,FEW,0.00,WeatherDisplay:10.37,2013-03-01 04:06:00,
2013-02-28 22:11:00,43.3,32.7,30.17,North,0,0.0,0.0,66,0.00,CLR,FEW,0.00,WeatherDisplay:10.37,2013-03-01 04:11:00,
2013-02-28 22:16:00,43.2,32.9,30.17,North,0,0.0,0.0,67,0.00,CLR,FEW,0.00,WeatherDisplay:10.37,2013-03-01 04:16:00,
2013-02-28 22:21:00,43.0,32.8,30.17,North,0,0.0,0.0,67,0.00,CLR,FEW,0.00,WeatherDisplay:10.37,2013-03-01 04:21:00,
2013-02-28 22:26:00,42.9,33.1,30.17,North,0,0.0,0.0,68,0.00,CLR,FEW,0.00,WeatherDisplay:10.37,2013-03-01 04:26:00,
2013-02-28 22:31:00,42.6,32.8,30.17,North,0,0.0,0.0,68,0.00,CLR,FEW,0.00,WeatherDisplay:10.37,2013-03-01 04:31:00,
2013-02-28 22:36:00,42.3,32.4,30.17,North,0,0.0,0.0,68,0.00,CLR,FEW,0.00,WeatherDisplay:10.37,2013-03-01 04:36:00,
2013-02-28 22:41:00,42.3,32.8,30.17,North,0,0.0,0.0,69,0.00,CLR,FEW,0.00,WeatherDisplay:10.37,2013-03-01 04:41:00,
2013-02-28 22:46:00,42.1,33.0,30.17,North,0,0.0,0.0,70,0.00,CLR,FEW,0.00,WeatherDisplay:10.37,2013-03-01 04:46:00,
2013-02-28 22:51:00,42.1,33.7,30.17,North,0,0.0,0.0,72,0.00,CLR,FEW,0.00,WeatherDisplay:10.37,2013-03-01 04:51:00,
2013-02-28 22:56:00,42.1,34.0,30.17,North,0,0.0,0.0,73,0.00,CLR,FEW,0.00,WeatherDisplay:10.37,2013-03-01 04:56:00,
2013-02-28 23:00:00,41.9,34.2,30.17,North,0,0.0,0.0,74,0.00,CLR,FEW,0.00,WeatherDisplay:10.37,2013-03-01 05:00:00,
2013-02-28 23:01:00,41.9,34.2,30.18,North,0,0.0,0.0,74,0.00,CLR,FEW,0.00,WeatherDisplay:10.37,2013-03-01 05:01:00,
2013-02-28 23:02:00,41.9,34.2,30.17,North,0,0.0,0.0,74,0.00,CLR,FEW,0.00,WeatherDisplay:10.37,2013-03-01 05:02:00,
2013-02-28 23:06:00,41.9,34.2,30.17,North,0,0.0,0.0,74,0.00,CLR,FEW,0.00,WeatherDisplay:10.37,2013-03-01 05:06:00,
2013-02-28 23:11:00,41.9,34.2,30.17,North,0,0.0,0.0,74,0.00,CLR,FEW,0.00,WeatherDisplay:10.37,2013-03-01 05:11:00,
2013-02-28 23:16:00,41.7,33.7,30.17,North,0,0.0,0.0,73,0.00,CLR,FEW,0.00,WeatherDisplay:10.37,2013-03-01 05:16:00,
2013-02-28 23:22:00,41.4,33.0,30.17,North,0,0.0,0.0,72,0.00,CLR,FEW,0.00,WeatherDisplay:10.37,2013-03-01 05:22:00,
2013-02-28 23:27:00,41.2,32.8,30.17,North,0,0.0,0.0,72,0.00,CLR,FEW,0.00,WeatherDisplay:10.37,2013-03-01 05:27:00,
2013-02-28 23:32:00,40.8,32.5,30.17,North,0,1.2,0.0,72,0.00,CLR,FEW,0.00,WeatherDisplay:10.37,2013-03-01 05:32:00,
2013-02-28 23:37:00,40.6,32.3,30.17,North,0,1.2,1.2,72,0.00,CLR,FEW,0.00,WeatherDisplay:10.37,2013-03-01 05:37:00,
2013-02-28 23:42:00,40.5,32.1,30.17,North,0,1.2,0.0,72,0.00,CLR,FEW,0.00,WeatherDisplay:10.37,2013-03-01 05:42:00,
2013-02-28 23:47:00,40.5,32.1,30.16,North,0,1.2,1.2,72,0.00,CLR,FEW,0.00,WeatherDisplay:10.37,2013-03-01 05:47:00,
2013-02-28 23:52:00,40.3,32.0,30.16,North,0,2.3,2.3,72,0.00,CLR,FEW,0.00,WeatherDisplay:10.37,2013-03-01 05:52:00,
2013-02-28 23:57:00,40.1,31.8,30.16,North,0,1.2,1.2,72,0.00,CLR,FEW,0.00,WeatherDisplay:10.37,2013-03-01 05:57:00,